Weather History for Litchfield, MN

Change the Weather History Date:

Wednesday, March 13, 2013

  Actual Average Record
Temperature  
Mean Temperature 17 °F -  
Max Temperature 26 °F 36 °F 68 °F (1990)
Min Temperature 8 °F 20 °F -15 °F (1993)
Degree Days  
Heating Degree Days 48    
Moisture  
Dew Point 14 °F    
Average Humidity 86    
Maximum Humidity 100    
Minimum Humidity 69    
Precipitation  
Precipitation 0.00 in - - ()
Sea Level Pressure  
Sea Level Pressure 30.30 in    
Wind  
Wind Speed 6 mph (West)    
Max Wind Speed 10 mph    
Max Gust Speed -    
Visibility 10 miles    
Events      
Averages and records for this station are not official NWS values.
T = Trace of Precipitation, MM = Missing Value Source: NWS Daily Summary

Daily Weather History Graph

Daily Weather History Graph

Search for Another Location

Airport:

Trip Planner

Search our weather history database for the weather conditions in past years. The results will help you decide how hot, cold, wet, or windy it might be!

Date:

Astronomy

Mar. 13, 2013 Rise Set
Actual Time 7:33 AM CDT 7:21 PM CDT
Civil Twilight 7:04 AM CDT 7:51 PM CDT
Nautical Twilight 6:30 AM CDT 8:25 PM CDT
Astronomical Twilight 5:55 AM CDT 9:00 PM CDT
Moon 8:06 AM CDT (3/13) 9:47 PM CDT (3/13)
Length of Visible Light 12h 46m
Length of Day
11h 48m
Waxing Crescent, 4% of the Moon is Illuminated
Mar 13
Waxing Crescent
Mar 19
First Quarter
Mar 27
Full
Apr 2
Last Quarter
Apr 10
New

Hourly Weather History & Observations

Time (CDT) Temp. Windchill Dew Point Humidity Pressure Visibility Wind Dir Wind Speed Gust Speed Precip Events Conditions
12:13 AM 15.8 °F 3.4 °F 12.2 °F 86% 30.23 in 10.0 mi NW 10.4 mph - N/A   Clear
12:53 AM 15.8 °F 7.2 °F 12.2 °F 86% 30.23 in 10.0 mi NW 5.8 mph - N/A   Clear
1:13 AM 14.0 °F 2.9 °F 12.2 °F 93% 30.24 in 10.0 mi WNW 8.1 mph - N/A   Clear
1:32 AM 14.0 °F 2.9 °F 12.2 °F 93% 30.25 in 10.0 mi NW 8.1 mph - N/A   Clear
1:53 AM 14.0 °F 3.9 °F 12.2 °F 93% 30.25 in 10.0 mi NW 6.9 mph - N/A   Clear
2:32 AM 12.2 °F 0.7 °F 12.2 °F 100% 30.27 in 10.0 mi NW 8.1 mph - N/A   Clear
2:53 AM 12.2 °F 1.7 °F 12.2 °F 100% 30.27 in 10.0 mi NW 6.9 mph - N/A   Clear
3:13 AM 12.2 °F 1.7 °F 10.4 °F 92% 30.27 in 10.0 mi WNW 6.9 mph - N/A   Clear
3:53 AM 12.2 °F 1.7 °F 10.4 °F 92% 30.27 in 10.0 mi WNW 6.9 mph - N/A   Clear
4:13 AM 10.4 °F -0.4 °F 10.4 °F 100% 30.28 in 10.0 mi WNW 6.9 mph - N/A   Clear
4:32 AM 10.4 °F -0.4 °F 10.4 °F 100% 30.28 in 10.0 mi WNW 6.9 mph - N/A   Clear
4:53 AM 10.4 °F -0.4 °F 10.4 °F 100% 30.29 in 10.0 mi WNW 6.9 mph - N/A   Clear
5:13 AM 10.4 °F -0.4 °F 10.4 °F 100% 30.29 in 10.0 mi WNW 6.9 mph - N/A   Clear
5:32 AM 10.4 °F -1.5 °F 10.4 °F 100% 30.30 in 10.0 mi NW 8.1 mph - N/A   Clear
5:53 AM 10.4 °F -0.4 °F 10.4 °F 100% 30.30 in 10.0 mi NW 6.9 mph - N/A   Clear
6:13 AM 10.4 °F 2.2 °F 10.4 °F 100% 30.31 in 10.0 mi WNW 4.6 mph - N/A   Clear
6:32 AM 10.4 °F 2.2 °F 8.6 °F 92% 30.31 in 10.0 mi WNW 4.6 mph - N/A   Clear
6:53 AM 8.6 °F -2.6 °F 8.6 °F 100% 30.31 in 10.0 mi WNW 6.9 mph - N/A   Clear
7:13 AM 8.6 °F 2.0 °F 8.6 °F 100% 30.32 in 10.0 mi West 3.5 mph - N/A   Clear
7:32 AM 8.6 °F 2.0 °F 8.6 °F 100% 30.32 in 10.0 mi WNW 3.5 mph - N/A   Clear
7:53 AM 8.6 °F 0.1 °F 8.6 °F 100% 30.32 in 10.0 mi WNW 4.6 mph - N/A   Clear
8:13 AM 8.6 °F 0.1 °F 8.6 °F 100% 30.33 in 10.0 mi West 4.6 mph - N/A   Clear
8:33 AM 8.6 °F -1.3 °F 8.6 °F 100% 30.33 in 10.0 mi WNW 5.8 mph - N/A   Clear
8:53 AM 10.4 °F 2.2 °F 8.6 °F 92% 30.34 in 10.0 mi WNW 4.6 mph - N/A   Clear
9:12 AM 10.4 °F 0.8 °F 8.6 °F 92% 30.35 in 10.0 mi WNW 5.8 mph - N/A   Clear
9:33 AM 12.2 °F 2.9 °F 10.4 °F 92% 30.36 in 10.0 mi WNW 5.8 mph - N/A   Clear
9:53 AM 12.2 °F 4.3 °F 10.4 °F 92% 30.36 in 10.0 mi NW 4.6 mph - N/A   Clear
10:13 AM 15.8 °F 7.2 °F 10.4 °F 79% 30.36 in 10.0 mi NW 5.8 mph - N/A   Clear
10:32 AM 15.8 °F - 10.4 °F 79% 30.36 in 10.0 mi Calm Calm - N/A   Clear
10:53 AM 15.8 °F 10.2 °F 12.2 °F 86% 30.37 in 10.0 mi West 3.5 mph - N/A   Clear
11:13 AM 15.8 °F 8.6 °F 12.2 °F 86% 30.37 in 10.0 mi West 4.6 mph - N/A   Clear
11:32 AM 17.6 °F 12.3 °F 12.2 °F 79% 30.37 in 10.0 mi West 3.5 mph - N/A   Clear
11:53 AM 17.6 °F 12.3 °F 12.2 °F 79% 30.37 in 10.0 mi West 3.5 mph - N/A   Clear
12:13 PM 19.4 °F 14.3 °F 14.0 °F 80% 30.36 in 10.0 mi West 3.5 mph - N/A   Clear
12:32 PM 21.2 °F 14.9 °F 15.8 °F 80% 30.36 in 10.0 mi WNW 4.6 mph - N/A   Clear
12:53 PM 23.0 °F 17.0 °F 15.8 °F 74% 30.37 in 10.0 mi WSW 4.6 mph - N/A   Clear
1:13 PM 23.0 °F 17.0 °F 15.8 °F 74% 30.37 in 10.0 mi WSW 4.6 mph - N/A   Clear
1:32 PM 23.0 °F 17.0 °F 15.8 °F 74% 30.36 in 10.0 mi West 4.6 mph - N/A   Clear
1:53 PM 23.0 °F 17.0 °F 15.8 °F 74% 30.36 in 10.0 mi WNW 4.6 mph - N/A   Clear
2:13 PM 24.8 °F 19.1 °F 15.8 °F 69% 30.34 in 10.0 mi WNW 4.6 mph - N/A   Clear
2:32 PM 24.8 °F 19.1 °F 17.6 °F 74% 30.34 in 10.0 mi WNW 4.6 mph - N/A   Clear
2:53 PM 26.6 °F 21.2 °F 17.6 °F 69% 30.34 in 10.0 mi West 4.6 mph - N/A   Clear
3:13 PM 26.6 °F 21.2 °F 17.6 °F 69% 30.33 in 10.0 mi West 4.6 mph - N/A   Clear
3:32 PM 26.6 °F 21.2 °F 17.6 °F 69% 30.33 in 10.0 mi West 4.6 mph - N/A   Clear
3:53 PM 26.6 °F 21.2 °F 17.6 °F 69% 30.33 in 10.0 mi SW 4.6 mph - N/A   Clear
4:13 PM 26.6 °F 22.6 °F 19.4 °F 74% 30.32 in 10.0 mi West 3.5 mph - N/A   Clear
4:32 PM 26.6 °F 22.6 °F 19.4 °F 74% 30.31 in 10.0 mi WSW 3.5 mph - N/A   Clear
4:53 PM 26.6 °F 22.6 °F 19.4 °F 74% 30.30 in 10.0 mi WSW 3.5 mph - N/A   Clear
5:12 PM 26.6 °F - 17.6 °F 69% 30.29 in 10.0 mi Calm Calm - N/A   Clear
5:33 PM 24.8 °F - 17.6 °F 74% 30.29 in 10.0 mi Calm Calm - N/A   Clear
5:53 PM 24.8 °F - 17.6 °F 74% 30.29 in 10.0 mi Calm Calm - N/A   Clear
6:12 PM 24.8 °F - 17.6 °F 74% 30.29 in 10.0 mi Calm Calm - N/A   Clear
6:33 PM 24.8 °F - 17.6 °F 74% 30.30 in 10.0 mi Calm Calm - N/A   Clear
6:53 PM 23.0 °F - 17.6 °F 80% 30.29 in 10.0 mi Calm Calm - N/A   Clear
7:12 PM 21.2 °F - 17.6 °F 86% 30.29 in 10.0 mi Calm Calm - N/A   Clear
7:33 PM 21.2 °F - 17.6 °F 86% 30.28 in 10.0 mi Calm Calm - N/A   Clear
7:53 PM 21.2 °F - 17.6 °F 86% 30.28 in 10.0 mi Calm Calm - N/A   Clear
8:12 PM 21.2 °F - 17.6 °F 86% 30.27 in 10.0 mi Calm Calm - N/A   Clear
8:33 PM 21.2 °F 16.4 °F 17.6 °F 86% 30.26 in 10.0 mi SE 3.5 mph - N/A   Clear
8:53 PM 21.2 °F 16.4 °F 17.6 °F 86% 30.25 in 10.0 mi SSE 3.5 mph - N/A   Clear
9:12 PM 21.2 °F 14.9 °F 17.6 °F 86% 30.25 in 10.0 mi SE 4.6 mph - N/A   Clear
9:33 PM 21.2 °F 13.6 °F 17.6 °F 86% 30.24 in 10.0 mi SE 5.8 mph - N/A   Mostly Cloudy
9:52 PM 21.2 °F 14.9 °F 17.6 °F 86% 30.23 in 10.0 mi SE 4.6 mph - N/A   Overcast
10:13 PM 21.2 °F 14.9 °F 19.4 °F 93% 30.22 in 10.0 mi SE 4.6 mph - N/A   Overcast
10:33 PM 21.2 °F 13.6 °F 19.4 °F 93% 30.22 in 10.0 mi SE 5.8 mph - N/A   Overcast
10:52 PM 23.0 °F 17.0 °F 19.4 °F 86% 30.22 in 10.0 mi SSE 4.6 mph - N/A   Mostly Cloudy
11:13 PM 23.0 °F 17.0 °F 19.4 °F 86% 30.21 in 10.0 mi SSE 4.6 mph - N/A   Mostly Cloudy
11:33 PM 24.8 °F 20.5 °F 21.2 °F 86% 30.20 in 10.0 mi SSE 3.5 mph - N/A   Overcast
11:52 PM 24.8 °F 17.9 °F 21.2 °F 86% 30.19 in 10.0 mi SSE 5.8 mph - N/A   Overcast